This is the latest recevied weather packets stored in our database for station/object KA8OAD-10. If no packets are shown the sender has not sent any weather packets the latest 1 day(s).
| Time | Temp. | Humidity | Pressure | Rain* | Wind** | Luminosity | Snow |
|---|---|---|---|---|---|---|---|
| 1778022151 | 15° C | 86% | 1006.4 hPa | 1.78 mm | 0.89 m/s, 318° | 0 W/m² | - |
| 1778020951 | 15.56° C | 87% | 1005.8 hPa | 0 mm | 0 m/s | 12 W/m² | - |
| 1778020651 | 15.56° C | 87% | 1005.8 hPa | 0 mm | 0 m/s | 19 W/m² | - |
| 1778020351 | 15.56° C | 86% | 1005.9 hPa | 0 mm | 0 m/s | 19 W/m² | - |
| 1778020051 | 15.56° C | 86% | 1005.7 hPa | 0 mm | 0 m/s | 23 W/m² | - |
| 1778019449 | 15.56° C | 86% | 1005.9 hPa | 0 mm | 0 m/s | 28 W/m² | - |
| 1778018852 | 15.56° C | 85% | 1006 hPa | 0.25 mm | 0.45 m/s, 305° | 28 W/m² | - |
| 1778018551 | 15.56° C | 85% | 1006 hPa | 0.25 mm | 0.45 m/s, 302° | 33 W/m² | - |
| 1778017353 | 16.11° C | 84% | 1006 hPa | 0.25 mm | 0.89 m/s, 306° | 26 W/m² | - |
| 1778016452 | 16.67° C | 82% | 1005.9 hPa | 1.27 mm | 0.45 m/s, 309° | 21 W/m² | - |
| 1778015850 | 16.67° C | 81% | 1006 hPa | 1.27 mm | 0.45 m/s, 305° | 26 W/m² | - |
| 1778014652 | 17.22° C | 79% | 1006.1 hPa | 0.76 mm | 0.89 m/s, 301° | 11 W/m² | - |
| 1778014351 | 17.78° C | 78% | 1006 hPa | 0.76 mm | 0.45 m/s, 302° | 11 W/m² | - |
| 1778013750 | 17.78° C | 77% | 1006.1 hPa | 0.76 mm | 0.89 m/s, 290° | 23 W/m² | - |
| 1778013449 | 17.78° C | 76% | 1006.1 hPa | 0.51 mm | 0.89 m/s, 288° | 28 W/m² | - |
| 1778012853 | 18.33° C | 73% | 1005.9 hPa | 0 mm | 0.89 m/s, 283° | 16 W/m² | - |
| 1778012552 | 18.33° C | 72% | 1005.6 hPa | 0 mm | 0.45 m/s, 278° | 11 W/m² | - |
| 1778011651 | 18.33° C | 71% | 1005.6 hPa | 0 mm | 0.45 m/s, 279° | 32 W/m² | - |
| 1778011350 | 18.33° C | 71% | 1005.7 hPa | 0 mm | 0.45 m/s, 284° | 23 W/m² | - |
| 1778011050 | 18.33° C | 70% | 1005.5 hPa | 0 mm | 0.45 m/s, 265° | 88 W/m² | - |
| 1778010753 | 18.33° C | 70% | 1005.7 hPa | 0 mm | 0.45 m/s, 273° | 42 W/m² | - |
| 1778010152 | 18.33° C | 70% | 1005.8 hPa | 0 mm | 0.89 m/s, 303° | 95 W/m² | - |
| 1778009852 | 18.33° C | 71% | 1005.8 hPa | 0 mm | 0.45 m/s, 285° | 54 W/m² | - |
| 1778009551 | 18.33° C | 70% | 1005.8 hPa | 0 mm | 0.89 m/s, 272° | 65 W/m² | - |
| 1778009251 | 18.33° C | 71% | 1005.8 hPa | 0 mm | 0.89 m/s, 244° | 95 W/m² | - |
* Rain latest hour (hover to see other rain measurements)
** Current wind speed in m/s (hover to see current wind gust speed)